Briefing Météo

Réalisé par l'Aéro Club de Sologne

Prévisions de front à 12H UTC

Satellite infrarouge Europe

Satellite visible France

Radar pluie

Précipitations prévues à 18Z

Précipitations prévues à 00Z J+1

Carte vents 12H UTC France 10m

Carte vents 15H UTC France 10m

Carte vents 12H UTC France 850 hPa

Carte vents 15H UTC France 850 hPa

Sondages prévus par MeteoFrance à 12H UTC


Sondages prévus par MeteoFrance à 15H UTC


Températures à 9h UTC

Températures à 15h UTC

Production vol à voile / Aéroweb

Sites externes

Table des Niveaux de Vol

QNH LFYR :
Delta : m
METAR : LFYR 280130Z AUTO 21004KT 180V240 9999 BKN026 BKN045 BKN170 17/16 Q1002
FLAltitude standardAltitude du jourZones
551676 mR20 B5
651981 mR85, R20 B2
952895 m
1153505 mR20 B4
1955943 mR20 B1, R20 B3
Respectez ces valeurs pour être sûrs de ne pas depasser les plafonds !

Flash sécurité

Prévisions pour demain

Prévisions de Front à 0H UTC J+1

Prévisions à 24h

Prévisions à 48h